Theta_e
314 311 309 309 311 313 313 314 314 314 314 315 318 322 322 317 317 316 315 315 317 318 317 315 315 315 314 314 314 315 315 315 315 315 315 315 316 316 317 317 316 316 315 316 316 317 316 316 316 316 317 315 313 313 314 314 318 319 319 320 319 319 321 317 313 316 318 319 320 320 320 321 320 320 322 321 320 319 316 317 318 313 312 310 316 332 340
315 312 309 308 310 312 313 314 314 314 314 313 316 323 321 315 315 315 315 316 316 317 317 316 315 314 314 314 313 313 314 314 315 315 315 316 316 316 316 316 317 317 316 316 317 316 316 316 317 317 317 315 312 312 312 314 317 318 318 320 319 318 319 317 314 314 315 316 317 317 318 319 318 320 322 321 322 323 320 321 321 318 315 311 316 329 337
315 313 310 308 310 312 313 314 313 314 314 312 316 325 321 316 317 315 314 316 316 316 316 316 316 315 315 315 314 313 313 313 314 314 314 315 315 316 316 315 316 317 316 317 317 317 317 317 317 317 316 314 312 311 312 313 314 315 317 319 318 319 321 320 317 315 315 316 316 314 316 318 318 319 321 321 321 321 320 318 316 316 317 315 320 330 336
315 313 310 309 310 311 313 313 313 314 314 312 317 325 321 317 319 316 315 316 315 315 315 315 316 316 317 316 315 314 313 312 312 313 314 314 315 315 315 315 316 317 317 317 317 317 317 318 318 317 315 314 312 311 312 311 312 317 320 318 317 320 321 322 321 318 317 319 319 319 318 316 315 316 318 320 320 321 321 316 314 317 316 319 329 337 337
315 314 311 309 310 311 312 313 313 314 315 314 318 324 320 317 317 317 317 317 315 315 315 315 315 316 317 316 315 315 314 313 312 312 313 314 314 315 315 316 317 317 318 317 317 318 318 318 319 318 316 315 312 310 312 311 312 318 319 315 317 320 317 318 321 318 317 319 318 320 320 316 315 316 316 318 319 321 320 316 318 322 317 321 338 342 334
315 315 312 310 310 310 312 313 313 314 315 317 321 324 317 315 316 315 317 318 315 315 315 314 314 315 315 315 315 314 314 315 314 313 313 313 315 316 316 316 316 317 317 318 318 319 319 319 319 319 317 315 313 312 312 311 312 315 315 312 318 320 315 315 318 315 316 317 316 317 319 317 317 316 315 317 318 319 320 318 321 326 321 326 341 342 336
314 315 312 310 310 310 312 313 313 314 315 319 324 323 317 316 316 313 315 316 314 314 315 315 315 315 315 316 315 315 314 314 315 314 314 314 315 316 317 315 315 316 317 319 320 319 319 320 320 319 318 316 316 316 315 313 312 313 313 313 316 319 317 316 315 315 315 315 315 315 316 315 316 316 316 317 317 318 319 319 322 327 326 330 338 339 338
313 315 313 311 311 310 311 313 313 314 316 319 321 320 318 319 320 318 317 315 315 315 315 316 316 315 317 316 315 315 315 314 314 315 315 316 315 316 316 315 315 316 317 318 319 319 318 319 319 319 318 317 318 319 317 315 315 313 313 314 315 317 317 316 314 313 313 313 314 313 314 314 313 314 315 315 316 316 317 318 320 323 326 329 333 335 336
313 315 314 311 311 311 311 312 313 314 319 322 318 316 318 318 318 321 320 316 315 316 316 317 318 318 318 317 315 315 314 313 314 314 314 315 316 315 315 315 315 316 316 317 316 316 316 316 316 316 317 316 316 318 316 316 317 316 314 314 314 316 316 314 313 312 311 312 312 311 313 313 310 311 313 314 314 315 316 318 321 321 322 324 328 330 333
312 315 315 312 312 312 311 312 312 313 319 325 323 317 319 320 317 318 320 317 316 317 316 317 318 317 316 317 317 315 314 313 315 315 314 314 315 314 315 316 316 316 317 316 315 314 315 315 314 313 314 314 314 315 315 314 317 318 316 314 315 317 317 313 311 311 310 311 311 311 311 309 308 311 313 314 315 317 319 322 324 325 324 322 323 327 331
311 314 316 313 312 312 312 312 312 312 318 326 327 320 318 322 321 319 320 318 316 317 318 317 316 315 315 316 315 314 313 315 317 317 315 312 313 314 315 316 317 317 316 315 314 313 313 313 313 313 313 313 314 314 315 315 316 317 317 316 316 316 316 315 313 311 311 312 311 311 309 308 311 314 315 317 317 317 320 322 323 326 327 326 328 330 331
310 313 316 315 313 312 313 313 312 312 316 322 326 322 319 323 326 323 321 319 315 316 318 317 315 315 315 315 315 315 315 315 316 316 315 313 313 314 314 316 317 316 315 313 313 313 313 313 314 315 314 315 315 315 316 316 315 315 316 318 318 315 315 317 315 311 312 313 311 309 310 312 316 318 317 318 319 317 321 326 326 325 326 329 331 331 329
310 312 315 316 314 313 313 313 313 312 314 319 323 323 321 324 327 325 321 319 317 317 317 316 315 316 315 315 316 315 315 315 315 315 314 314 314 315 315 316 316 315 314 313 314 315 316 316 316 316 316 316 316 316 317 318 317 316 317 318 319 319 317 317 315 312 314 314 309 310 314 317 318 317 315 315 318 319 321 325 325 324 325 328 329 328 328
310 311 314 316 316 314 313 313 314 313 314 318 323 322 320 323 325 325 322 321 318 316 316 316 316 316 317 317 316 315 315 315 315 316 316 316 316 316 315 314 315 315 315 314 315 316 317 316 316 316 317 317 317 318 319 319 317 317 318 317 318 320 321 319 316 314 315 313 309 314 318 318 316 317 317 318 320 320 321 322 323 323 323 325 327 327 326
309 310 312 315 316 316 314 313 314 314 315 319 323 323 321 320 323 326 325 322 319 315 316 319 318 317 317 317 316 317 317 316 317 317 316 316 317 316 314 314 315 315 315 315 316 316 316 316 315 315 315 315 317 318 319 319 317 316 317 317 317 318 321 323 320 317 315 313 312 315 316 315 317 320 321 321 320 320 320 320 322 324 323 322 325 326 325
308 309 311 313 315 316 316 315 314 314 315 318 322 325 321 318 321 327 326 321 320 319 317 318 318 317 318 317 316 318 319 318 318 318 316 317 317 316 315 316 316 316 315 316 317 317 316 316 314 314 314 316 318 319 320 319 318 317 316 317 318 318 320 321 319 316 314 313 313 313 313 317 323 323 320 318 317 317 317 315 317 323 324 321 323 324 323
307 309 310 312 314 316 316 316 316 315 315 316 320 324 322 317 319 326 327 321 321 320 316 316 316 317 318 318 316 317 318 318 318 318 318 319 318 316 316 316 315 316 316 317 317 317 316 315 314 313 314 318 318 317 317 318 318 319 318 317 318 318 318 317 315 314 314 314 313 311 314 321 325 322 318 317 316 317 317 315 317 323 323 321 321 322 321
306 308 310 311 313 315 315 315 316 316 315 315 319 323 323 316 317 324 327 322 319 319 316 314 316 317 319 320 318 317 317 317 317 317 318 319 318 318 317 316 316 316 316 317 318 318 316 316 315 312 315 320 318 313 314 316 317 320 321 319 317 318 317 316 315 313 313 314 313 311 317 324 324 320 318 317 316 316 317 319 322 325 323 321 321 321 320
306 307 310 311 311 313 315 315 316 316 316 316 319 324 323 316 315 321 326 322 319 319 318 315 315 317 318 318 318 317 316 318 318 318 318 318 318 317 316 316 317 317 316 316 318 318 316 315 316 314 315 319 318 313 314 316 315 318 322 320 318 318 317 317 316 314 313 314 313 312 317 323 322 319 319 317 316 317 320 322 324 323 321 321 320 319 319
305 306 309 310 311 312 313 314 315 315 316 316 317 322 324 319 315 319 322 322 319 319 320 318 316 316 316 316 316 317 317 317 317 317 318 319 319 317 316 317 317 316 317 317 318 319 317 315 317 316 313 315 317 316 315 315 315 317 320 320 318 317 317 316 315 315 314 314 314 313 317 322 322 319 319 317 316 319 322 323 323 321 320 320 319 318 319
305 306 308 310 311 311 312 314 314 314 315 315 315 319 323 323 319 318 319 320 321 320 320 320 317 317 317 316 317 318 318 318 318 318 318 320 319 316 317 320 318 316 318 318 318 319 318 316 317 317 314 315 317 316 315 315 315 316 318 319 318 318 317 315 315 316 314 313 314 316 319 321 320 317 317 318 319 321 322 321 320 319 319 318 318 318 318
305 305 307 309 311 311 311 313 313 314 315 315 315 319 322 324 322 318 317 320 322 320 319 319 317 317 317 317 317 318 318 318 319 319 318 319 319 317 317 320 319 317 318 318 318 318 318 316 317 317 316 316 316 316 316 315 315 317 319 318 317 318 319 319 319 319 317 315 317 320 321 320 318 316 316 318 319 321 321 320 320 319 317 317 317 317 317
305 305 306 308 310 311 311 311 312 314 314 314 315 320 323 323 322 319 319 323 324 321 320 320 319 318 318 317 317 318 318 318 318 318 318 318 319 318 317 318 318 318 318 318 318 319 318 318 318 317 317 317 316 317 317 316 315 318 319 318 316 317 320 320 319 318 318 317 318 320 319 319 318 316 316 317 318 318 319 318 317 316 316 317 316 316 316
305 305 305 308 310 311 311 311 312 313 314 314 314 317 319 320 320 320 321 324 323 321 321 321 320 320 320 319 318 318 317 317 317 318 318 318 318 318 319 319 318 318 319 319 319 318 318 318 318 318 318 318 317 317 317 316 316 317 317 317 317 318 318 318 317 316 317 317 317 318 318 318 317 316 317 317 317 317 317 317 317 316 316 316 316 316 316
305 305 305 307 309 310 310 311 311 312 312 313 314 315 319 321 321 319 320 321 320 320 321 320 319 319 319 318 318 318 318 318 318 317 317 318 317 318 318 319 319 319 319 320 319 318 318 318 318 318 319 319 318 317 317 316 316 317 317 316 316 317 318 318 317 316 316 317 318 318 318 318 317 317 316 317 317 317 317 317 317 316 316 316 316 316 315
305 305 305 306 308 310 310 310 311 311 311 311 312 315 318 320 318 317 320 322 321 320 321 320 320 319 318 317 318 319 319 319 318 318 318 318 317 317 318 319 319 319 319 319 318 318 318 319 318 319 319 319 318 318 318 317 316 317 318 317 317 318 318 318 318 317 317 317 317 318 318 318 318 318 317 317 317 317 317 317 316 316 316 316 316 316 315
305 305 304 306 308 310 310 310 311 311 311 310 311 313 316 317 316 317 320 322 322 322 322 321 320 320 320 319 319 319 318 318 318 318 318 318 318 318 318 318 319 319 319 319 318 318 318 319 319 319 319 319 318 318 319 319 318 318 318 318 318 318 318 318 318 318 317 317 318 319 319 319 319 318 318 317 317 316 316 316 316 316 316 316 316 316 316
306 305 305 305 307 309 310 310 311 312 311 311 313 314 316 317 317 316 317 318 321 323 322 320 320 320 321 320 318 318 318 318 318 319 319 318 318 318 319 319 319 319 319 320 319 319 319 319 319 320 320 321 320 320 320 320 319 319 318 318 318 319 320 319 318 317 317 317 318 319 319 319 319 318 317 317 317 316 316 316 316 315 315 316 316 315 315
305 305 305 305 307 310 311 310 311 311 311 312 315 317 318 317 316 316 315 315 319 321 321 321 321 321 322 320 318 319 320 319 319 319 319 320 320 319 320 320 320 319 319 320 320 320 320 319 319 321 321 321 321 321 321 321 321 321 321 321 321 321 322 321 319 319 318 318 318 319 319 319 319 319 318 318 317 316 316 316 316 315 316 316 315 315 314
305 305 304 305 308 310 310 310 311 310 311 313 317 320 321 320 318 316 315 315 317 320 320 320 321 321 322 320 319 320 320 320 320 321 321 321 321 321 321 321 320 320 320 320 320 321 321 320 320 321 319 319 320 321 321 321 321 321 321 322 322 321 321 321 320 319 319 318 318 319 319 319 319 319 318 318 318 317 316 316 316 315 316 316 315 315 315
306 304 305 306 308 310 310 311 311 310 311 315 320 321 321 322 320 316 315 315 318 319 319 320 321 321 320 320 320 321 321 321 321 322 321 321 321 321 321 321 321 321 321 321 322 322 321 321 321 321 319 319 320 321 321 321 321 320 319 320 321 320 319 319 318 317 316 317 317 317 318 318 318 318 318 318 318 318 317 316 316 316 315 316 316 315 315
305 304 305 307 309 310 310 311 311 311 313 316 319 319 319 318 316 314 314 316 318 319 320 321 322 322 322 322 321 320 320 321 321 321 321 320 321 321 321 321 321 321 321 321 322 321 320 320 321 321 321 319 319 320 320 320 320 320 319 320 321 319 318 317 317 316 316 317 317 318 319 318 317 317 318 319 319 318 317 317 316 316 316 316 316 315 315
304 305 307 309 310 310 311 312 313 314 315 316 316 316 316 314 312 312 314 316 319 320 320 321 323 324 323 322 322 321 320 320 321 321 322 322 322 322 321 321 321 321 321 321 321 320 319 319 320 321 320 318 318 319 319 319 319 319 319 319 320 319 318 317 317 317 317 317 318 319 319 319 319 319 318 319 319 318 317 317 316 316 316 316 315 314 314
305 306 308 309 310 311 312 313 315 317 318 319 319 319 317 315 313 312 315 318 319 320 320 321 323 324 322 321 322 322 320 320 320 321 322 322 322 321 321 320 321 321 321 321 320 319 319 319 319 319 319 318 318 319 319 319 319 318 318 318 318 318 318 318 318 318 318 318 319 319 319 319 320 319 318 318 318 317 316 317 316 315 315 315 314 314 314
305 308 309 310 311 312 313 314 317 319 320 321 321 320 317 314 313 313 316 319 320 321 322 322 322 324 323 323 324 323 321 319 319 320 320 321 321 320 320 320 320 321 320 319 318 319 320 319 318 318 319 320 320 320 319 319 319 317 316 317 317 317 318 319 319 318 318 318 318 318 319 319 319 319 318 317 317 316 316 316 316 315 315 314 314 313 313
306 309 311 312 314 315 316 317 319 320 321 321 320 317 315 314 314 314 316 318 319 321 323 322 322 323 323 323 325 323 320 318 319 320 319 320 321 320 320 320 320 320 319 319 319 319 319 318 317 318 319 319 319 320 319 319 319 318 317 317 317 317 318 319 319 318 319 318 317 316 318 318 318 318 317 316 316 315 315 315 315 315 314 314 313 313 313
308 311 313 314 316 318 319 320 320 320 319 317 316 316 315 315 316 316 317 318 319 319 320 321 322 323 322 322 324 322 320 320 321 320 319 320 320 320 320 320 319 319 319 319 320 319 318 317 318 318 318 318 319 319 318 318 318 318 318 317 317 317 317 318 318 318 318 318 317 318 318 318 317 317 316 315 315 315 315 314 314 314 313 313 313 312 311
310 311 313 316 319 320 321 321 319 317 316 316 316 318 318 318 318 319 319 319 320 319 319 320 322 322 321 321 323 322 320 320 320 318 319 320 319 318 319 319 319 318 318 318 319 318 318 318 318 318 318 318 318 317 317 317 317 317 317 317 317 317 317 317 317 317 318 318 318 318 318 317 317 316 316 315 314 314 314 313 313 312 312 311 311 310 310
311 313 316 319 320 320 321 320 318 316 316 317 318 320 320 320 320 321 321 320 320 321 321 321 322 322 322 322 323 321 320 320 319 319 319 319 318 318 318 318 318 318 317 317 317 317 318 319 319 318 318 318 316 315 316 316 316 316 315 316 316 316 316 317 317 317 317 317 316 316 316 316 316 315 314 314 314 313 312 312 311 310 310 309 309 309 309
314 318 320 320 319 320 319 318 316 316 318 319 320 321 321 321 321 322 322 321 321 322 322 322 322 321 320 321 322 321 320 319 319 319 318 318 317 317 317 317 318 317 316 316 317 316 317 318 317 317 317 316 315 314 315 314 313 313 313 314 314 315 316 317 317 317 317 316 315 315 315 314 314 314 313 313 313 312 311 311 310 309 309 309 309 309 309
318 320 320 320 320 319 319 318 317 318 320 321 321 321 321 322 321 322 322 322 322 322 322 322 322 322 321 320 320 321 321 320 320 319 318 318 318 317 316 317 318 316 315 316 316 316 316 316 316 316 317 316 315 314 313 313 312 311 311 312 312 313 314 316 316 316 316 316 315 314 314 313 313 313 312 312 312 311 310 310 310 309 309 309 309 309 309
318 319 319 319 318 318 319 319 319 320 321 321 320 321 321 321 323 323 323 323 323 322 321 321 321 321 321 320 319 319 320 320 320 319 318 318 318 317 316 317 317 316 315 315 316 316 315 314 314 315 315 315 314 313 313 312 311 311 311 311 311 311 313 315 314 314 315 315 314 314 313 313 312 312 311 311 311 311 310 310 310 309 309 309 309 309 309
314 316 317 318 318 319 319 320 320 320 320 320 320 322 322 322 322 323 323 323 323 322 321 322 321 320 320 320 319 319 320 320 318 318 318 318 318 317 317 317 317 316 316 315 315 315 314 314 314 315 315 314 313 312 312 312 311 310 311 311 310 310 311 313 313 313 313 313 313 313 312 311 311 311 311 310 310 310 310 310 310 309 309 309 308 308 308
315 317 318 319 319 319 319 319 320 320 320 320 320 323 324 324 324 324 323 323 323 322 321 321 321 320 320 319 319 319 320 319 317 317 318 318 318 317 317 316 316 315 315 314 314 314 313 313 315 315 314 312 312 312 311 311 310 310 310 310 310 309 309 310 312 313 313 313 312 312 311 311 310 310 309 310 309 309 309 309 309 309 308 308 308 308 307
318 317 318 320 320 319 319 320 320 320 321 321 321 323 325 325 324 324 323 322 321 321 320 319 320 320 320 320 319 318 318 318 318 317 317 318 317 317 316 315 314 313 313 312 311 310 308 310 314 313 312 310 310 310 309 309 309 309 309 309 309 309 309 309 311 314 314 313 312 310 310 310 310 310 309 309 309 309 309 309 309 308 308 307 307 307 306
319 317 317 320 320 318 318 319 319 318 320 321 322 323 324 324 323 323 322 321 320 320 320 319 319 319 318 319 319 318 318 318 318 317 317 317 316 315 314 313 312 310 309 309 308 307 306 309 311 311 310 309 308 308 307 307 307 307 307 307 307 308 309 310 311 313 314 313 312 311 309 309 310 309 309 309 309 309 309 309 308 308 307 307 306 306 305
319 317 316 318 318 317 316 318 319 319 319 320 320 321 322 322 321 322 321 320 320 320 319 319 319 319 319 318 317 316 315 316 317 317 316 314 313 312 311 310 309 309 307 307 307 306 307 309 310 309 308 308 308 307 307 307 307 307 307 306 306 307 308 309 311 312 313 313 313 312 310 309 309 309 309 309 310 309 308 308 307 307 307 306 306 305 305
318 317 317 318 318 317 317 319 319 318 319 321 321 321 322 321 322 323 322 319 319 320 320 320 320 319 318 317 315 313 312 314 314 314 314 312 310 309 309 308 308 308 306 306 306 307 308 308 308 307 307 308 307 307 307 307 307 307 307 306 306 306 307 308 309 310 311 313 313 312 310 309 309 309 309 310 310 309 308 307 307 306 306 306 305 305 304
316 316 317 318 318 317 318 319 319 319 320 322 321 321 321 321 322 322 321 320 320 320 319 319 319 317 315 314 312 311 311 313 312 311 310 310 309 309 308 308 307 307 306 306 308 309 308 307 307 307 307 307 307 307 307 307 308 308 308 307 307 307 307 308 308 309 310 312 313 312 311 311 310 309 309 309 309 308 307 307 306 306 306 305 305 304 304
317 317 317 317 318 320 320 320 321 322 322 322 322 322 322 321 321 321 319 319 320 320 320 318 317 315 314 312 311 310 311 311 310 309 309 309 308 308 307 307 306 306 307 308 308 307 306 306 306 307 307 307 307 308 308 308 307 307 308 308 308 307 307 307 308 309 309 311 312 312 312 313 312 310 308 308 308 307 307 306 306 306 305 305 305 304 304
316 316 317 317 318 320 321 321 322 323 323 322 322 322 322 322 322 320 319 319 320 320 318 316 315 313 311 310 310 310 310 309 309 309 309 308 308 307 306 306 306 307 308 308 307 306 306 306 306 307 308 308 308 309 310 309 308 307 308 308 308 307 305 306 308 309 309 310 311 311 312 313 312 310 308 307 307 307 306 306 305 305 305 305 305 305 304
315 316 317 318 319 320 321 322 323 323 322 322 323 323 322 323 322 321 319 319 319 318 316 315 313 312 310 310 311 310 309 309 309 308 308 308 308 307 306 306 307 307 307 306 306 305 306 306 306 307 309 308 308 309 310 310 310 309 308 308 308 307 306 307 309 309 309 310 311 311 310 310 310 309 308 307 307 307 306 306 305 305 305 305 305 305 305
Wind_Speed
24 25 25 26 27 28 30 28 24 24 21 15 13 12 7 3 3 6 6 5 8 8 1 3 1 3 4 3 4 4 2 4 4 3 4 3 1 2 3 2 2 6 5 2 1 2 2 2 2 3 5 6 7 8 9 10 8 6 4 0 4 4 6 5 1 2 5 7 3 3 4 5 6 5 3 5 7 8 7 5 5 7 11 11 5 6 5
23 24 25 25 26 27 28 28 24 21 19 17 15 10 3 2 3 4 4 4 8 6 0 3 3 4 3 4 5 5 5 6 6 5 6 5 3 3 4 3 1 4 7 6 4 2 1 1 1 2 2 4 6 7 9 10 8 6 6 4 5 4 5 6 4 5 5 4 5 5 4 5 8 6 2 5 6 7 7 5 4 5 9 9 5 4 6
23 24 24 24 25 26 27 27 24 19 17 15 11 7 3 2 1 2 4 3 4 3 3 2 3 5 3 4 5 4 4 5 6 6 6 6 5 3 3 3 2 3 5 5 5 5 4 2 2 1 2 3 3 6 8 9 8 7 8 9 7 4 3 3 4 6 6 4 5 5 7 8 6 3 2 4 5 6 6 6 6 7 6 6 2 6 9
22 23 24 24 25 25 26 26 23 19 17 14 10 9 6 3 1 1 2 1 2 4 4 3 2 3 2 2 3 2 4 5 4 5 4 5 5 4 3 2 1 3 4 5 5 4 3 3 5 4 3 3 3 5 6 7 8 9 10 9 7 4 2 0 1 2 1 1 2 2 4 10 9 6 4 3 2 4 6 8 6 5 5 2 5 11 13
21 21 23 24 24 25 25 24 22 17 16 15 10 8 5 2 2 3 2 1 2 3 2 3 2 1 1 1 1 2 3 5 3 4 3 3 3 3 3 2 0 2 3 4 4 3 4 4 4 4 3 3 4 1 3 5 6 9 9 6 5 5 3 3 1 1 3 4 5 5 2 4 6 5 4 2 0 3 7 6 3 4 5 3 8 13 14
20 20 22 23 23 24 24 23 20 15 13 13 10 5 2 2 2 3 3 3 2 3 4 4 4 4 3 1 1 2 3 3 4 5 4 2 2 2 2 2 2 3 1 2 4 4 5 5 4 3 3 3 4 4 2 4 3 6 5 4 4 5 2 1 1 2 1 3 3 3 3 2 2 1 1 2 1 2 3 1 3 4 1 6 10 12 12
18 19 20 22 23 23 23 22 19 14 11 10 9 4 3 1 2 3 2 3 3 4 3 3 5 6 3 2 3 4 4 5 5 5 4 5 4 3 3 5 4 4 2 1 3 2 1 4 4 2 2 1 2 2 2 2 1 3 3 3 2 4 1 2 4 2 2 1 1 1 1 0 3 3 1 1 1 1 1 2 4 4 6 11 13 12 11
17 17 18 20 21 22 23 22 18 13 11 9 6 4 5 3 3 2 0 2 3 2 1 0 3 4 0 0 3 3 4 6 6 6 5 5 5 4 6 8 6 6 6 5 6 5 5 4 5 2 1 1 1 1 1 2 2 2 3 2 2 2 1 2 5 4 4 2 2 3 2 3 5 4 3 3 3 3 2 1 2 4 7 10 13 13 10
16 16 17 18 20 21 22 21 18 14 12 9 4 5 7 5 5 5 2 2 2 2 1 1 2 3 2 1 3 3 4 6 6 6 8 6 6 6 6 7 6 7 8 7 7 7 6 5 5 2 3 2 1 2 2 2 1 1 0 1 2 3 1 1 4 6 4 3 3 4 3 5 8 8 7 6 4 4 3 2 2 3 6 9 10 10 8
15 14 15 16 18 19 20 21 20 15 13 11 7 5 6 5 2 4 5 0 1 2 1 1 1 3 4 3 2 2 4 4 2 3 5 5 6 6 4 3 4 5 7 6 6 5 5 4 3 1 2 2 1 1 1 1 3 2 1 1 2 3 2 3 4 6 4 5 3 3 4 7 7 6 6 7 5 2 2 3 1 1 2 5 5 6 9
14 13 13 15 16 17 18 19 20 17 15 13 9 7 8 8 4 3 6 2 2 2 1 2 3 3 3 3 3 3 4 3 3 2 3 4 4 4 4 3 2 4 5 4 3 4 3 2 1 0 1 1 1 1 1 1 1 2 1 2 1 2 4 3 3 5 3 5 3 4 6 7 2 4 5 3 2 2 2 3 3 2 1 3 6 8 11
14 12 11 13 14 15 16 17 18 17 15 13 10 8 9 11 7 4 6 2 2 1 1 5 4 2 3 3 3 4 4 3 3 2 4 6 3 2 4 3 2 3 3 1 1 1 2 2 1 1 1 1 1 1 0 2 1 1 2 3 1 3 5 3 2 5 3 5 4 6 6 3 5 7 6 6 4 0 0 2 4 3 3 7 10 10 9
14 12 9 10 12 13 14 15 16 15 13 13 10 9 10 11 7 4 5 3 1 1 3 5 4 3 4 4 3 4 5 4 4 4 4 5 3 2 4 4 4 4 2 0 1 3 4 3 2 2 2 1 1 2 1 1 1 1 2 3 3 3 3 3 3 5 3 4 6 5 3 6 7 6 5 4 3 2 3 3 4 3 3 6 8 9 8
14 12 9 8 9 11 12 12 13 13 12 12 10 9 11 12 8 5 5 4 1 3 2 3 4 4 3 3 3 4 5 4 3 4 3 2 3 3 4 4 4 3 0 1 1 3 3 2 3 4 3 4 4 4 2 2 2 1 1 1 3 4 4 3 4 5 4 5 6 4 5 6 6 5 4 3 2 2 1 3 5 6 5 4 6 8 7
14 12 9 6 7 9 10 10 11 12 11 11 9 8 10 12 10 7 6 5 1 2 1 1 4 5 3 3 2 3 4 4 3 4 3 0 1 4 4 3 2 1 2 2 2 3 3 3 4 4 4 4 3 3 2 3 4 3 2 2 3 3 3 4 4 4 4 5 5 5 5 5 5 7 7 5 4 4 3 4 3 8 6 4 6 8 6
13 12 9 6 5 6 8 9 9 10 9 9 7 7 9 12 11 9 7 6 3 1 3 4 4 3 3 2 2 4 2 2 3 4 4 4 3 2 3 2 1 1 3 4 3 2 4 3 3 4 3 0 1 0 1 2 3 5 4 2 3 4 4 4 5 4 5 5 6 6 5 3 7 8 7 5 3 3 1 4 4 8 8 4 3 6 7
13 12 9 6 4 4 6 7 8 8 8 8 7 7 9 12 12 10 8 5 4 1 5 4 2 3 2 2 2 2 2 0 0 1 2 4 4 4 3 3 2 2 3 4 3 3 4 3 2 5 3 3 2 2 2 3 4 4 4 4 5 5 5 5 6 6 5 5 6 5 1 5 9 8 6 5 4 1 4 5 4 7 9 5 0 3 7
12 12 10 7 4 2 3 5 6 7 7 7 6 5 7 10 12 10 8 4 3 1 5 4 3 2 1 2 1 1 2 2 2 2 1 3 4 4 4 3 3 3 2 4 4 3 4 3 3 4 2 3 2 2 1 2 4 2 3 4 5 5 5 5 6 6 5 5 6 5 2 7 9 8 6 6 3 3 6 3 3 4 6 5 1 3 4
12 12 10 8 5 3 2 2 4 5 7 7 5 4 5 8 12 11 8 5 3 1 4 4 3 4 2 2 2 1 1 3 3 3 2 2 3 3 3 2 3 2 3 4 4 3 4 4 2 2 3 2 3 1 0 2 4 3 1 4 5 4 5 5 6 6 5 4 6 6 2 5 6 7 8 4 2 3 2 3 4 4 5 5 2 1 2
11 12 11 8 6 4 2 2 2 3 4 6 5 4 4 6 10 11 8 5 5 3 2 4 2 4 2 4 5 2 1 2 2 3 4 0 3 4 4 3 2 2 3 4 4 3 4 4 1 1 4 3 3 1 2 5 7 6 4 5 5 3 4 6 6 5 5 5 6 6 2 4 7 7 6 3 3 1 4 4 4 4 4 3 2 1 1
10 11 11 9 6 4 3 2 1 1 2 4 5 4 4 6 8 8 7 6 6 4 2 4 2 4 3 4 5 5 5 4 3 3 4 1 2 4 3 1 2 3 1 2 4 2 2 4 1 2 3 2 2 2 1 4 6 7 6 6 5 3 4 5 4 3 5 5 4 1 1 6 8 4 1 1 1 4 4 2 3 3 3 3 3 3 3
9 11 10 9 7 5 3 3 2 1 2 2 3 4 4 5 6 9 9 7 7 7 5 4 4 5 4 5 5 5 6 6 5 5 5 2 2 3 3 1 3 3 1 2 4 3 2 3 3 3 4 3 3 3 3 4 3 5 6 5 4 3 3 3 3 3 4 4 1 2 3 5 6 1 2 2 3 3 2 1 2 2 3 4 5 5 5
8 10 11 9 7 5 4 3 2 1 1 1 1 3 5 5 7 10 10 7 8 8 8 6 5 6 7 7 6 5 6 6 5 5 5 4 2 3 3 3 3 2 1 2 4 4 3 3 3 4 5 4 3 4 5 5 4 2 5 6 5 3 2 3 3 4 5 5 3 3 3 4 4 2 1 1 1 2 3 3 3 3 2 3 4 5 4
7 10 11 10 8 6 5 4 3 2 1 1 2 3 4 6 7 9 9 7 5 5 5 6 4 2 2 4 4 5 6 7 7 6 6 5 4 3 2 1 2 2 1 1 2 3 4 4 3 4 5 3 4 5 6 6 6 5 5 6 6 7 6 5 5 5 4 3 3 4 4 4 4 4 4 4 4 4 4 4 3 2 2 2 3 3 3
6 9 10 10 9 7 5 4 4 2 1 1 1 1 3 4 5 6 7 5 4 5 4 3 2 3 3 2 3 5 5 5 7 8 8 8 8 7 3 1 2 4 3 1 1 3 4 4 4 4 5 4 4 5 6 5 4 4 5 6 5 5 7 7 7 8 7 5 3 2 4 4 4 4 4 5 6 7 6 5 3 3 3 3 3 3 4
6 9 10 10 9 8 5 4 4 3 2 1 1 0 2 4 5 5 6 7 5 4 5 2 3 4 3 4 3 2 3 5 7 9 10 11 11 10 7 3 3 4 4 3 3 4 4 5 5 6 6 3 3 5 6 5 4 3 5 5 1 2 4 5 5 7 8 9 8 8 8 7 7 7 7 6 6 6 6 6 5 5 4 4 4 5 4
7 9 10 11 10 8 5 4 4 3 2 2 2 1 2 4 4 4 5 7 5 3 3 3 1 3 3 3 1 1 4 6 8 9 9 10 11 11 10 8 5 4 5 5 5 4 5 6 6 7 6 4 4 5 5 5 5 5 6 6 3 3 6 6 5 6 7 6 4 5 6 6 5 6 7 7 7 7 6 6 6 6 5 5 5 5 5
7 9 10 11 10 8 5 4 4 3 2 2 3 3 3 3 4 4 4 4 4 3 3 4 4 3 3 2 2 3 4 4 6 7 8 9 10 10 10 8 6 5 6 6 5 5 6 7 7 6 5 3 3 5 5 5 6 7 7 7 6 6 6 7 7 7 7 5 4 4 4 5 5 5 5 5 6 6 7 8 8 7 6 6 5 5 6
7 8 10 11 11 8 4 3 3 3 2 3 3 4 4 2 2 4 3 2 4 6 6 6 6 4 1 2 4 5 5 5 5 6 7 8 8 9 8 7 6 6 6 6 6 6 6 7 5 3 2 1 1 2 4 5 6 7 6 6 5 4 4 6 8 8 7 7 8 6 5 6 7 7 7 7 6 7 8 9 8 7 7 7 7 6 7
6 8 10 12 11 7 3 3 3 1 1 2 3 6 6 3 1 3 3 2 2 6 6 5 4 2 1 2 4 5 6 5 5 6 6 6 6 7 7 7 6 6 6 6 7 6 5 6 4 0 1 3 3 2 3 4 5 6 4 3 4 4 4 4 5 6 7 8 9 8 8 8 7 7 8 9 9 8 8 7 7 8 9 9 8 7 7
7 9 10 11 10 6 3 2 2 0 1 2 5 6 3 2 2 2 2 3 1 5 5 4 4 3 1 2 2 3 4 4 4 4 3 3 3 5 6 6 6 6 6 6 4 2 4 6 5 2 3 3 2 3 4 5 7 8 6 3 3 4 5 4 5 8 10 10 10 12 12 11 9 8 8 9 10 10 9 8 9 9 8 8 8 7 7
7 9 10 10 8 5 3 2 1 0 1 3 4 4 3 1 1 2 2 4 1 5 4 3 5 4 1 2 3 4 4 4 3 2 2 2 2 4 5 5 5 4 4 4 2 1 3 6 7 5 2 4 3 4 5 6 8 9 8 5 3 4 6 7 7 9 11 11 11 12 12 12 12 11 9 9 10 10 9 9 11 9 5 3 6 7 7
7 9 9 7 5 3 1 2 4 5 3 1 1 1 4 5 4 2 3 2 4 6 4 3 5 3 1 1 2 2 2 2 3 3 3 3 3 3 4 5 4 3 3 3 3 2 3 5 6 4 1 3 3 5 5 7 8 7 7 6 4 5 6 7 7 9 10 11 11 11 11 11 10 8 5 7 10 10 9 9 11 10 7 6 6 7 7
8 8 6 3 2 0 3 6 8 6 3 2 3 3 4 7 3 3 4 2 5 5 3 3 5 3 2 3 3 1 5 5 3 2 2 3 4 4 3 3 4 4 4 3 3 4 4 4 4 3 2 4 5 5 5 6 5 3 5 7 6 6 7 7 7 9 10 10 11 12 12 11 9 5 3 4 9 12 10 9 9 9 8 8 7 8 10
7 6 2 2 4 6 7 6 4 2 3 2 3 2 4 5 3 6 3 2 4 4 2 3 4 4 4 3 1 1 7 7 2 1 2 2 4 4 3 3 4 4 2 2 4 5 4 2 2 3 2 3 5 5 5 5 3 2 5 8 6 5 7 8 8 9 8 6 6 9 11 12 10 7 6 6 7 8 8 8 9 9 9 8 8 8 10
6 1 4 8 8 7 5 3 1 3 2 2 3 1 3 1 4 5 2 4 5 4 3 2 2 4 5 3 2 0 6 5 2 2 3 2 3 3 3 4 5 1 2 3 6 6 3 2 2 4 2 2 4 4 3 3 4 4 5 6 6 6 8 9 9 10 10 8 7 8 10 10 8 7 6 6 6 6 6 7 7 7 7 8 8 8 8
1 5 8 8 5 3 3 2 1 1 3 4 4 3 3 3 3 3 4 5 5 4 3 4 3 3 4 3 1 1 3 3 1 2 2 2 2 2 2 4 4 1 2 5 5 3 1 2 4 6 5 3 2 1 2 0 3 4 4 6 6 6 8 8 8 9 11 10 9 9 8 8 7 6 6 6 6 6 7 6 5 5 7 8 8 7 7
5 7 6 3 4 3 2 2 3 3 4 3 1 1 2 2 3 3 3 3 3 4 4 5 4 3 3 3 1 2 2 3 3 3 1 1 2 2 1 3 3 1 4 5 1 2 1 3 4 6 6 1 4 3 1 1 1 2 3 5 6 5 6 7 8 8 8 7 6 6 6 6 7 6 5 5 5 5 4 3 1 1 2 4 4 4 5
5 4 4 7 5 1 2 3 6 5 3 2 3 3 3 3 3 2 2 2 2 3 3 4 4 3 4 4 2 1 2 4 5 4 2 1 1 2 2 2 1 2 6 5 1 2 3 4 3 5 5 3 5 3 1 1 1 3 4 6 7 8 7 5 6 6 6 5 5 4 5 6 6 5 4 4 5 5 5 5 4 3 2 2 3 4 5
5 5 6 4 1 4 4 5 6 4 2 4 5 3 2 3 3 2 1 2 3 2 2 2 4 3 2 4 3 1 2 4 4 4 3 2 1 2 3 3 1 3 7 5 1 0 3 3 3 4 3 3 5 4 2 3 4 4 5 7 8 10 9 6 4 4 4 3 3 3 4 5 5 5 6 6 6 5 5 4 4 3 2 2 2 3 6
4 4 3 2 5 6 5 4 4 4 4 3 3 2 3 3 2 1 2 3 3 1 1 1 4 3 2 3 4 1 0 1 2 3 3 2 1 2 4 3 1 3 6 4 1 0 3 4 4 2 1 3 4 3 3 3 4 4 5 7 8 9 10 8 6 5 5 3 2 2 3 4 6 8 9 9 8 7 6 6 6 6 5 3 3 4 6
2 1 3 5 5 5 5 4 4 4 3 2 2 3 3 2 1 2 3 2 1 1 2 2 3 2 1 1 3 2 1 2 2 2 2 1 0 2 4 2 1 3 5 3 1 3 5 6 5 2 3 3 3 3 2 3 3 5 7 9 10 11 11 9 7 7 6 3 3 3 4 7 8 9 10 10 10 10 10 10 8 6 4 3 3 4 4
3 4 5 4 3 3 3 4 3 2 1 1 1 2 3 3 2 2 2 1 1 2 2 3 1 2 1 1 2 2 1 1 2 2 2 1 0 1 3 3 3 4 4 3 3 5 6 5 3 1 2 2 2 3 2 3 4 5 7 8 9 11 12 10 8 8 7 4 5 5 6 8 10 10 10 11 10 10 9 9 7 5 3 2 3 2 2
4 4 3 3 2 2 1 2 2 2 2 2 2 2 3 2 1 2 3 1 0 2 1 1 2 3 1 1 2 2 1 1 1 2 2 1 2 3 3 3 2 3 4 4 5 5 5 2 1 3 2 1 2 3 4 5 5 6 7 8 10 11 11 10 8 7 6 6 6 5 3 5 7 8 8 8 8 8 8 8 6 3 2 0 1 1 3
5 4 2 1 0 1 1 1 2 3 3 3 3 2 2 1 2 2 2 1 0 1 1 1 3 3 2 1 2 1 0 0 1 2 2 2 3 3 3 3 3 4 5 5 5 5 5 3 3 4 1 3 5 6 7 7 7 8 9 10 11 11 10 10 8 6 6 6 5 6 4 5 6 7 6 6 7 7 7 7 5 4 3 2 1 2 3
4 2 1 1 2 2 2 2 3 3 3 2 3 2 1 0 2 1 0 0 2 2 1 1 2 4 3 2 1 1 1 1 2 2 2 3 4 3 2 4 5 5 5 6 5 6 6 5 4 4 5 8 9 9 9 9 9 9 9 10 11 11 11 11 11 8 7 7 8 9 9 8 7 8 8 8 8 8 7 6 5 4 4 3 2 2 3
3 1 2 2 2 3 4 4 4 3 2 2 3 2 2 2 2 2 0 1 2 2 2 1 1 2 2 2 2 2 2 2 2 2 1 3 4 3 2 3 5 5 5 6 6 6 6 6 7 8 10 11 10 10 10 9 10 11 11 11 11 11 11 12 12 10 10 10 10 10 10 10 8 8 8 8 8 8 8 7 6 4 4 4 3 3 3
2 2 2 3 3 4 5 4 3 3 2 1 2 2 2 1 2 2 1 0 1 2 3 2 2 2 1 2 3 4 2 1 2 2 1 2 4 3 3 4 5 5 4 6 7 7 7 8 9 10 11 11 11 11 10 10 10 12 12 13 13 13 12 11 11 12 12 12 11 10 11 11 10 9 9 9 8 8 8 7 6 6 5 5 5 4 3
3 2 2 3 3 4 3 3 3 3 2 1 2 3 3 3 2 1 1 1 1 2 2 2 2 3 3 2 3 4 3 2 2 2 2 3 4 4 4 5 6 6 5 5 7 7 8 9 9 10 11 11 11 11 11 11 11 11 12 13 13 13 13 12 12 13 13 12 12 11 12 12 12 10 10 10 9 8 8 7 7 6 6 6 5 4 2
4 3 3 4 5 4 2 2 3 4 2 1 1 1 2 2 1 1 1 0 1 2 1 1 2 3 3 3 3 4 3 2 3 3 4 4 4 4 5 6 7 7 7 7 8 8 9 8 9 10 12 13 13 12 11 12 11 10 11 13 12 12 14 15 12 11 12 12 14 14 13 12 12 11 11 10 10 9 9 8 8 8 7 6 5 4 3
3 3 4 6 6 4 2 2 4 4 3 1 1 1 2 3 1 2 1 1 2 2 2 2 2 2 2 2 3 3 2 2 3 3 4 4 4 4 6 7 7 7 8 8 8 8 8 8 9 10 12 13 13 12 11 11 10 9 10 10 8 8 11 13 11 9 10 11 13 15 14 13 13 12 12 11 11 11 10 9 9 9 8 6 5 4 3
3 3 4 5 5 4 3 2 2 3 3 2 0 2 2 2 1 2 1 1 2 2 3 3 3 3 3 3 3 2 3 3 3 4 4 4 4 4 5 6 7 7 8 7 7 7 8 9 10 11 12 13 13 12 11 11 10 9 9 8 6 5 8 9 7 6 9 11 13 14 15 16 16 14 12 12 12 11 10 10 10 9 8 7 6 5 4
Wind_Direction
355 358 359 0 0 358 358 358 355 353 351 347 335 315 292 298 5 37 21 313 279 282 272 103 42 56 75 73 61 47 2 19 25 358 345 346 28 63 76 82 138 153 152 175 151 97 42 24 36 66 78 58 27 9 352 338 325 319 306 299 16 331 253 233 215 125 109 97 79 301 313 310 261 229 259 268 236 228 236 249 252 237 234 230 180 118 137
354 357 359 0 0 359 359 359 357 354 350 346 336 315 296 21 27 60 46 310 284 286 344 99 101 94 100 118 99 69 36 28 28 37 24 5 17 68 70 41 19 154 173 199 196 197 254 117 85 10 65 64 16 3 356 346 346 5 3 352 349 316 231 217 217 194 167 152 180 200 207 235 234 215 233 297 294 283 275 279 277 245 241 248 236 143 129
353 356 359 0 0 360 360 359 358 354 348 343 332 304 295 312 231 95 52 332 302 340 12 37 104 117 116 111 107 106 85 44 18 33 43 22 11 41 57 39 59 127 170 187 176 198 233 207 163 135 82 85 30 7 360 353 1 18 357 327 316 305 250 242 238 213 197 191 191 191 193 201 213 211 215 257 282 289 277 260 239 229 248 281 286 124 126
353 356 358 1 1 360 0 360 358 354 348 344 324 292 291 300 256 94 77 49 46 49 21 4 74 125 130 99 71 71 100 89 29 4 32 36 23 36 45 20 88 130 166 172 164 179 189 178 176 158 123 114 65 7 357 9 9 353 329 313 309 295 258 42 320 278 307 348 17 349 223 194 181 173 180 205 268 280 260 252 250 248 251 247 117 127 140
353 356 359 1 1 1 1 360 359 354 348 347 329 290 287 325 349 5 14 34 73 84 51 18 24 42 18 2 13 36 95 109 76 16 26 40 12 24 36 357 185 133 159 158 131 114 119 128 147 135 109 112 115 69 4 28 3 324 309 316 322 285 228 142 141 305 354 4 28 18 322 179 157 161 166 149 117 253 245 247 290 311 278 203 135 139 147
352 355 360 1 1 2 2 0 359 354 349 346 328 297 324 4 40 36 335 314 16 49 34 36 58 64 57 9 348 59 79 75 65 58 68 71 334 329 67 48 56 88 115 167 126 114 120 119 116 117 114 129 152 157 86 44 354 310 317 3 336 285 245 130 224 189 65 359 13 15 10 78 125 181 147 112 129 218 230 256 5 341 269 150 142 142 139
352 355 1 2 2 3 4 3 360 354 350 334 306 306 18 28 92 79 304 308 40 58 41 48 71 62 49 45 37 55 83 77 57 42 59 76 36 11 100 88 67 83 60 47 112 102 129 134 123 91 100 142 200 174 130 97 46 334 342 26 342 295 332 358 296 224 149 63 354 329 346 163 211 214 186 231 226 120 139 46 45 70 117 137 146 141 132
352 354 2 5 4 5 6 6 4 355 347 332 315 357 12 3 40 35 203 87 61 80 111 100 109 96 55 70 56 43 70 83 70 35 33 76 77 60 88 88 74 78 73 68 81 46 12 86 112 76 6 178 256 319 63 61 52 15 339 6 354 303 344 342 291 250 186 179 221 211 237 254 230 204 189 223 213 182 203 174 125 138 134 139 148 143 133
353 353 4 7 5 7 9 10 11 5 353 352 18 37 8 3 17 335 304 86 29 302 67 275 205 112 74 68 81 71 76 84 82 57 41 52 75 80 90 94 86 82 78 72 71 56 36 62 90 56 356 18 28 31 25 333 324 86 106 313 296 279 240 165 266 252 194 174 217 213 218 244 240 225 205 204 215 213 197 163 157 173 152 150 160 159 145
353 352 4 9 8 10 11 13 16 17 16 13 15 29 7 353 13 311 295 159 189 262 167 215 282 66 64 59 73 89 91 83 52 55 63 52 49 52 60 84 98 89 78 63 45 37 33 40 57 37 353 2 28 42 43 330 324 15 101 239 258 278 258 186 232 251 183 151 202 240 229 231 235 223 192 188 207 209 146 128 93 355 176 172 174 153 137
354 351 4 12 12 12 12 17 20 24 34 25 357 4 11 343 319 291 284 254 121 275 280 48 44 84 105 114 125 115 100 79 3 350 111 99 56 39 36 31 67 82 68 49 22 14 20 22 14 259 301 318 52 39 69 88 9 352 302 257 187 235 263 235 220 246 192 142 171 239 233 225 194 85 99 117 152 189 185 162 138 100 70 104 96 109 129
354 349 2 12 15 15 13 17 23 27 39 34 0 360 13 346 319 293 289 287 109 273 336 58 59 106 124 118 123 109 99 89 43 27 99 101 79 49 43 16 15 86 81 44 358 257 206 165 162 201 184 19 25 340 16 78 67 338 316 311 230 198 237 238 226 245 209 134 180 227 225 174 92 85 87 74 63 95 267 87 105 106 122 125 117 114 121
355 347 357 12 17 20 15 15 22 25 36 42 20 2 4 347 320 301 306 305 82 48 61 85 90 106 109 105 105 101 100 96 84 86 99 102 99 61 43 36 49 80 111 110 337 274 235 169 177 211 165 178 234 212 187 69 17 347 1 326 303 268 247 233 226 239 213 165 201 219 161 118 108 98 100 99 105 174 191 173 165 176 174 158 142 125 122
356 347 349 7 17 22 18 14 17 19 31 42 25 359 360 354 337 327 325 315 42 69 74 127 125 120 107 103 115 125 123 116 110 111 108 122 133 101 66 61 65 63 29 178 188 259 251 203 213 210 185 207 218 193 184 208 231 309 354 305 301 301 290 263 228 222 229 229 212 163 130 156 161 132 108 100 98 104 247 235 187 167 174 177 155 144 149
357 349 343 356 14 22 23 19 13 11 26 39 25 1 3 360 343 327 320 317 345 126 184 52 103 129 141 131 181 195 145 139 160 133 115 147 127 96 86 86 73 34 284 266 245 245 252 246 247 234 207 216 218 175 177 201 190 185 221 272 291 284 284 295 270 212 217 253 236 189 191 200 158 124 103 80 60 49 1 304 194 157 167 182 159 158 166
356 350 342 347 5 16 22 27 19 8 15 33 27 6 4 4 350 327 314 312 305 147 85 52 78 141 160 152 222 264 252 165 179 159 152 178 181 135 117 119 111 282 267 265 266 271 262 246 259 270 256 285 12 303 249 240 187 164 169 221 259 257 254 272 270 237 218 242 243 226 223 171 117 115 110 100 80 60 355 263 211 153 146 154 163 166 170
353 349 342 340 352 10 15 24 26 16 13 25 27 10 2 7 360 336 314 303 304 17 90 95 163 185 189 179 176 246 274 257 257 254 185 159 171 174 160 166 197 221 262 265 240 240 256 235 225 261 266 74 39 296 306 280 238 184 171 199 220 236 235 232 244 246 233 232 239 244 230 110 119 128 121 108 101 146 225 225 187 135 126 113 310 189 162
350 349 343 336 336 355 0 14 25 20 16 23 30 17 360 4 4 344 317 299 305 19 103 123 229 244 328 340 30 53 317 322 299 257 187 136 163 179 168 188 207 183 207 259 258 249 260 247 231 264 281 98 130 269 341 297 263 226 192 212 216 222 229 233 244 244 227 224 241 247 108 101 120 131 116 104 122 221 233 202 107 103 105 103 212 227 160
348 348 344 337 334 335 330 356 22 17 15 20 25 18 359 4 11 360 333 315 317 344 108 118 267 284 326 318 306 15 332 315 302 272 237 152 149 157 159 199 245 208 190 237 260 260 259 252 208 257 267 161 154 220 310 252 267 283 243 230 233 231 227 229 242 250 243 237 247 245 173 110 123 121 108 114 214 225 179 111 105 110 104 111 174 233 101
346 348 347 341 332 332 328 324 348 5 9 13 11 358 329 345 6 8 353 336 319 300 114 109 269 273 246 243 259 280 272 258 266 271 278 77 130 193 211 194 214 223 202 227 252 254 265 273 149 182 261 235 147 157 243 234 247 261 261 247 249 257 249 235 229 237 245 239 240 250 236 137 145 136 126 170 234 138 111 131 139 126 116 127 177 201 158
344 345 347 344 333 332 337 320 313 332 344 3 9 349 311 323 349 358 350 330 303 290 52 66 308 276 257 251 269 290 290 291 315 302 299 44 131 235 270 78 173 219 210 248 264 261 272 282 245 188 255 247 152 165 260 251 235 224 230 257 268 254 252 256 243 227 239 236 229 262 91 132 146 149 122 149 96 69 88 152 165 148 160 184 207 222 228
340 341 344 344 334 331 334 322 316 302 292 340 359 334 319 329 338 338 334 313 278 277 312 329 290 273 271 264 264 272 279 297 326 320 304 304 184 237 291 305 232 261 336 295 275 274 266 276 279 251 245 233 201 202 230 261 246 185 188 228 254 236 254 300 311 277 279 289 333 60 90 132 143 125 16 56 82 85 95 249 249 230 235 240 243 246 238
335 339 342 343 337 335 333 321 319 319 296 291 294 308 321 330 329 325 317 290 264 268 272 263 250 244 239 235 236 244 255 263 271 280 287 288 256 226 245 259 263 293 328 278 291 308 299 291 304 286 267 260 257 241 227 237 251 186 186 212 228 231 269 313 290 270 288 293 259 212 197 173 170 188 174 135 216 183 172 216 246 255 270 269 272 280 275
329 334 339 343 340 334 330 320 316 326 345 301 263 288 316 322 326 326 311 278 266 276 249 221 221 229 174 171 196 222 233 238 241 242 251 265 266 246 230 304 315 297 257 253 299 311 295 285 292 286 278 273 261 254 244 239 242 235 222 222 218 208 208 228 246 249 262 261 210 202 229 230 219 219 198 184 204 211 201 214 227 232 244 240 245 270 277
321 327 335 344 342 332 327 325 315 316 358 358 310 313 319 312 319 328 315 289 288 306 282 214 145 74 73 128 201 223 220 217 225 227 225 230 244 259 277 27 330 297 307 324 259 261 265 268 268 266 265 259 247 250 255 257 255 249 245 249 241 199 190 209 235 240 243 249 234 217 246 252 245 245 228 203 205 209 209 215 218 214 227 228 217 224 235
314 321 333 345 341 327 321 322 316 318 342 335 304 304 305 301 303 309 307 299 289 278 275 257 135 135 195 224 218 219 225 228 230 230 226 226 234 249 266 271 253 262 274 266 253 257 264 265 263 259 254 245 245 257 265 275 282 256 245 257 296 108 172 212 239 243 242 249 251 244 239 232 225 233 244 249 247 236 221 215 216 210 208 213 218 222 231
310 319 334 344 337 322 316 320 319 322 322 305 308 328 300 300 308 306 305 309 300 254 257 288 110 149 214 250 266 243 239 239 232 221 220 227 230 237 248 252 245 244 251 252 248 247 252 255 253 253 251 241 238 253 267 282 284 266 251 244 211 191 221 231 236 240 240 243 255 262 258 249 240 240 242 240 248 252 239 221 218 221 217 218 227 229 227
306 317 333 342 334 318 309 318 321 323 323 315 315 308 285 286 301 291 277 287 295 294 303 307 298 282 273 255 217 214 206 207 214 211 210 217 221 226 237 244 243 243 243 247 247 243 245 249 249 255 264 259 254 265 266 260 257 256 255 249 237 237 250 252 248 254 269 291 319 324 295 281 289 300 280 240 220 227 233 226 224 229 230 228 235 243 245
305 319 334 341 332 316 305 321 322 318 333 338 306 272 251 237 306 303 274 246 278 296 302 291 277 276 254 173 193 203 190 185 206 216 215 214 214 220 231 238 246 250 246 247 250 249 247 249 259 291 300 204 187 293 274 254 251 253 260 275 293 329 335 297 283 286 294 297 301 304 293 281 281 288 288 272 242 228 231 234 233 231 234 237 238 242 254
306 322 334 336 328 315 307 324 319 317 15 344 281 256 236 183 86 302 258 189 288 301 299 294 291 300 124 176 207 200 185 190 213 219 221 225 221 217 222 229 236 243 247 248 251 260 268 260 253 264 154 199 211 237 238 240 253 253 261 309 334 353 7 342 313 306 300 296 297 291 278 274 275 272 271 269 262 251 239 238 240 234 231 238 241 237 246
309 324 332 333 325 312 304 313 300 117 42 318 279 267 255 121 68 301 213 139 334 300 290 287 285 275 203 171 204 208 197 205 218 215 211 230 238 228 227 232 230 231 244 254 250 271 291 274 250 199 155 169 209 249 250 253 260 262 267 276 268 274 282 275 268 275 277 280 283 277 267 262 263 262 257 253 252 248 237 232 238 236 230 237 248 246 244
313 326 331 330 319 301 304 327 302 200 289 286 284 299 323 340 272 257 151 118 272 282 286 290 274 256 200 148 183 208 212 205 207 208 181 188 242 244 233 236 242 244 255 268 258 218 251 262 264 264 190 147 179 246 254 251 257 267 276 271 244 252 272 270 261 263 264 262 265 268 264 254 246 247 255 260 254 245 232 229 233 228 206 218 256 264 266
322 328 328 322 307 294 321 72 89 100 115 182 199 343 325 309 281 223 145 138 262 267 276 285 270 256 253 230 189 192 246 236 212 214 203 189 219 245 227 227 247 251 231 239 258 255 240 246 260 269 188 157 208 252 252 249 261 284 297 295 284 267 260 255 252 256 258 256 253 255 259 259 251 249 278 298 279 255 235 231 234 223 195 191 224 244 254
325 326 320 308 299 335 115 114 107 105 119 160 125 104 321 311 293 159 152 215 260 257 244 260 272 267 231 213 182 221 284 275 228 203 212 188 203 241 243 218 225 229 213 212 241 259 251 243 251 254 199 189 223 249 254 251 264 303 297 281 278 274 266 260 253 250 252 254 255 255 256 258 258 255 267 286 271 252 234 225 229 223 208 205 217 229 236
324 322 328 93 100 99 104 111 124 202 248 238 111 98 300 291 174 148 155 247 262 256 227 227 266 283 266 240 154 245 271 270 240 215 251 199 195 236 268 245 234 236 208 201 244 257 254 243 264 271 246 203 219 236 248 255 259 266 268 272 285 296 291 287 280 274 275 279 278 272 263 253 248 246 236 228 237 242 232 220 220 220 215 216 225 238 249
320 294 127 112 105 102 104 117 221 267 288 55 76 44 318 315 140 155 229 265 265 277 285 247 251 276 283 296 52 235 262 261 218 207 240 225 204 220 251 265 268 262 143 211 250 257 238 158 213 253 248 213 228 232 236 269 283 286 286 297 315 309 293 291 293 294 295 288 267 257 255 248 242 241 238 230 228 236 236 227 221 218 218 223 231 242 255
298 142 128 117 121 160 174 152 103 50 74 77 73 71 76 96 147 205 239 244 238 242 263 280 274 270 287 314 3 260 272 286 264 237 245 258 258 231 224 261 278 268 204 246 257 252 197 179 225 251 259 247 224 179 118 325 304 315 316 312 312 303 294 295 297 297 296 287 268 251 244 242 237 233 231 227 222 222 224 222 221 223 224 227 235 246 257
150 142 144 189 223 218 162 123 119 117 111 90 44 51 143 171 216 225 213 210 213 209 228 261 260 244 271 293 239 200 253 301 298 295 312 326 293 289 267 273 287 287 273 273 242 125 215 245 239 256 267 200 117 110 115 234 287 326 323 312 309 307 303 299 294 291 290 286 273 254 239 232 226 218 214 208 195 183 174 159 125 291 256 256 274 290 289
156 161 209 232 236 2 58 136 152 144 142 230 250 242 221 212 228 229 191 187 210 207 214 242 250 254 282 286 238 148 343 320 306 312 338 341 315 312 293 289 313 290 282 286 128 142 250 259 234 249 255 166 126 124 302 331 356 350 349 344 333 320 309 298 291 290 291 289 280 265 250 238 227 210 189 170 158 145 125 105 85 62 18 317 308 307 296
203 232 243 230 129 71 89 145 157 159 227 238 224 223 239 232 227 234 210 218 235 220 186 226 252 255 278 290 288 346 349 314 310 326 325 322 356 330 293 299 346 297 284 290 7 92 276 265 233 242 242 146 117 104 60 29 13 3 12 14 351 326 314 304 282 267 269 277 273 250 231 227 218 196 169 154 150 143 128 123 135 161 205 235 252 267 277
218 248 273 67 89 103 125 151 185 225 249 246 227 239 253 235 214 232 253 250 255 230 130 250 273 251 203 268 284 287 128 288 312 322 304 299 8 293 285 299 357 284 284 298 49 142 259 264 272 286 47 92 93 89 73 44 19 358 360 11 360 332 318 312 295 264 242 223 206 200 190 176 171 170 165 158 154 153 154 160 173 188 200 214 243 268 280
227 155 78 86 104 139 165 186 214 228 245 285 282 263 255 239 214 243 249 251 294 279 163 187 275 285 184 259 291 320 27 345 311 285 277 294 43 281 286 295 244 260 284 316 326 268 273 288 305 343 95 110 94 72 55 34 16 346 338 347 348 333 323 324 321 303 279 234 166 164 180 173 166 168 171 169 170 174 175 174 176 182 191 224 263 280 303
161 143 133 136 154 174 197 219 228 227 251 276 269 261 252 227 208 261 255 206 239 262 197 164 218 289 341 24 314 323 25 335 278 266 270 288 231 254 273 275 257 266 292 312 290 281 291 307 327 40 110 111 64 37 5 341 332 321 319 324 324 319 321 327 328 316 294 245 183 170 186 186 177 176 181 180 179 181 176 168 168 173 183 242 279 300 347
149 160 177 205 195 168 219 253 229 213 242 236 219 251 261 217 176 288 285 237 194 295 281 196 256 278 273 184 260 264 150 137 254 264 256 256 265 265 267 266 268 284 296 291 279 285 302 327 98 118 116 56 19 2 342 329 316 306 305 306 301 300 303 306 303 293 269 235 190 165 200 212 185 175 183 181 173 171 167 158 155 162 163 216 303 354 14
210 197 199 241 216 149 279 264 216 224 243 231 218 256 296 167 179 234 270 285 283 272 255 248 281 299 311 223 232 253 70 124 247 257 258 270 274 275 283 302 309 297 289 287 289 302 317 351 87 104 50 343 340 331 322 317 308 301 302 303 297 289 284 281 276 270 263 239 178 150 175 210 182 164 171 169 156 157 161 154 146 144 136 120 51 23 25
237 211 202 245 258 240 228 216 217 233 244 233 236 267 327 27 222 239 341 250 255 266 291 322 308 314 321 318 293 305 298 256 258 271 281 282 284 291 313 317 304 291 290 302 310 314 323 351 45 42 352 334 329 322 315 311 309 304 299 296 294 290 281 271 262 252 246 233 198 172 175 188 181 171 169 160 149 150 153 144 137 140 136 122 97 58 45
241 259 260 257 250 228 219 224 236 242 243 261 275 298 8 4 310 306 347 204 260 300 323 311 294 302 307 302 293 283 258 254 281 299 293 290 299 310 317 299 295 297 308 315 318 324 336 354 8 0 343 333 328 325 320 315 309 303 297 291 288 286 280 270 260 247 232 225 216 194 176 174 181 179 168 154 146 145 143 135 131 134 131 123 119 106 79
255 265 248 243 241 228 223 234 254 253 243 277 307 327 351 313 276 275 269 237 289 308 305 307 331 332 293 273 285 296 303 300 300 303 312 304 299 294 284 290 301 310 317 320 328 339 346 346 345 341 334 328 323 319 314 308 303 301 296 288 282 279 274 262 253 244 228 215 210 198 179 172 177 176 162 153 150 144 138 134 136 137 133 129 127 121 99
292 282 239 242 260 259 252 271 290 271 244 256 307 306 279 248 224 168 124 178 242 299 319 339 337 317 307 308 309 310 319 335 319 311 306 293 293 301 311 312 312 317 326 341 351 348 340 335 333 329 323 320 317 313 308 306 305 302 294 287 283 280 271 256 245 242 232 215 203 196 186 177 173 167 158 154 153 146 139 139 140 136 132 132 134 129 113
265 258 242 245 256 265 274 289 282 267 241 189 183 263 276 268 226 109 94 195 269 286 282 248 267 296 321 339 324 312 321 337 319 303 295 299 314 331 326 314 314 323 334 347 350 340 331 330 330 324 320 319 316 311 307 306 306 301 293 289 285 278 267 255 240 234 234 220 199 187 179 168 159 156 158 159 156 149 144 144 144 140 137 139 140 135 126
237 243 246 246 252 270 306 308 285 286 303 347 129 163 257 273 251 122 100 302 284 282 283 286 293 303 316 320 313 311 321 323 306 294 299 316 334 333 319 320 332 340 340 343 343 335 329 331 330 324 322 320 317 315 313 311 308 304 297 291 284 272 264 256 240 230 232 217 188 172 164 152 142 146 158 165 162 154 150 150 151 149 146 148 147 138 123
229 246 255 248 245 253 263 265 265 277 289 296 156 143 179 228 218 105 100 260 276 296 309 307 303 309 323 332 329 314 303 300 296 295 303 323 347 350 337 340 349 348 340 340 340 332 330 332 329 326 326 324 319 317 317 313 308 308 305 299 288 266 257 251 235 225 227 209 178 161 154 148 145 152 166 171 167 162 158 158 162 162 161 159 157 150 139